CAPE
1 0 0 0 0 0 0 0 0 0 0 0 0 0 0 0 0 0 0 0 0 0 0 0 0 0 0 0 0 0 0 0 0 10 38 39 31 2 0 0 0 0 0 0
9 0 0 0 0 0 0 0 0 0 0 0 0 0 0 0 0 0 0 0 0 0 0 0 0 0 0 0 0 0 0 0 0 0 0 0 0 0 0 0 0 0 0 0
3 0 0 0 0 0 2 0 0 0 0 0 0 0 0 0 0 0 0 0 0 0 0 0 0 0 0 0 0 0 0 0 0 0 0 0 0 0 0 0 0 0 0 0
12 0 0 0 2 0 1 0 0 0 0 0 0 0 0 0 0 0 0 0 0 0 0 0 0 0 0 0 0 0 0 0 0 0 0 0 0 0 0 0 0 0 0 0
0 0 0 0 0 0 0 0 0 0 0 0 0 0 0 0 0 0 0 0 0 0 0 0 0 0 0 0 0 0 0 0 0 0 0 0 0 0 0 0 0 0 0 0
0 0 0 2 0 1 1 0 0 1 0 0 0 0 0 0 0 0 0 0 0 0 0 0 0 0 0 0 0 0 0 0 0 0 0 0 0 0 0 0 0 0 0 0
2 0 0 4 7 5 0 0 0 0 0 0 2 0 0 0 0 0 0 0 0 0 0 0 0 0 0 0 0 0 0 0 0 0 0 0 0 0 0 0 0 0 0 0
0 0 3 0 3 1 0 0 0 0 0 0 0 0 0 0 0 0 0 0 0 0 0 0 0 0 0 0 0 0 0 0 0 0 0 0 0 0 0 0 0 0 0 0
0 0 0 0 1 0 1 0 0 0 0 0 0 0 0 0 0 0 0 0 0 0 0 0 0 0 0 0 0 0 0 0 0 0 0 0 0 0 0 0 0 0 0 0
0 0 0 0 0 0 0 0 0 0 0 0 0 0 0 0 0 0 0 0 0 0 0 0 0 0 0 0 0 0 0 0 0 0 0 0 0 0 0 0 0 0 0 0
0 0 2 0 0 0 0 0 0 0 0 0 0 0 0 0 0 0 0 0 0 0 0 0 0 0 0 0 0 0 0 0 0 0 0 0 0 0 0 0 0 0 0 0
0 0 0 0 0 0 0 0 0 0 0 0 0 0 0 0 0 0 0 0 0 0 0 0 0 0 0 0 0 0 0 0 0 0 0 0 0 0 0 0 0 0 0 0
0 0 0 0 0 0 0 0 0 0 0 0 0 0 0 0 0 0 0 0 0 0 0 0 0 0 0 0 0 0 0 0 0 0 0 0 0 0 0 0 0 0 0 0
0 0 0 0 0 0 0 0 0 0 0 0 0 0 0 0 0 0 0 0 0 0 0 0 0 0 0 0 0 0 0 0 0 0 0 0 0 0 0 0 0 0 0 0
0 0 0 0 0 0 0 0 0 0 0 0 0 0 0 0 0 0 0 0 0 0 0 0 0 0 0 0 0 0 0 0 0 0 0 0 0 0 0 0 0 0 0 0
0 0 0 0 0 0 0 0 0 0 0 0 0 0 0 0 0 0 0 0 0 0 0 0 0 0 0 0 0 0 0 0 0 0 0 0 0 0 0 0 0 0 0 0
0 0 0 0 0 0 0 0 0 0 0 0 0 0 0 0 0 0 0 0 0 0 0 0 0 0 0 0 0 0 0 0 0 0 0 0 0 0 0 0 0 0 0 0
0 0 0 0 0 0 0 0 0 0 0 0 0 0 0 0 0 0 0 0 0 0 0 0 0 0 0 0 0 0 0 0 0 0 0 0 0 0 0 0 0 0 0 0
0 0 0 0 0 0 0 0 0 0 0 0 0 0 0 0 0 0 0 0 0 0 0 0 0 0 0 0 0 0 0 0 0 0 0 0 0 0 0 0 0 0 0 0
0 0 0 0 0 0 0 0 0 0 0 0 0 0 0 0 0 0 0 0 0 0 0 0 0 0 0 0 0 0 0 0 0 0 0 0 0 0 0 0 0 0 0 0
0 0 0 0 0 0 0 0 0 0 0 0 0 0 0 0 0 0 0 0 0 0 0 0 0 0 0 0 0 0 0 0 0 0 0 0 0 0 0 0 0 0 0 0
0 0 0 0 0 0 0 0 0 0 0 0 0 0 0 0 0 0 0 0 0 0 0 0 0 0 0 0 0 0 0 0 0 0 0 0 0 0 0 0 0 0 0 0
0 0 0 0 0 0 0 0 0 0 0 0 0 0 0 0 0 0 0 0 0 0 0 0 0 0 0 0 0 0 0 0 0 0 0 0 0 0 0 0 0 0 0 0
0 0 0 0 0 0 0 0 0 0 0 0 0 0 0 0 0 0 0 0 0 0 0 0 0 0 0 0 0 0 0 0 0 0 0 0 0 0 0 0 0 0 0 0
0 0 0 0 0 0 0 0 0 0 0 0 0 0 0 0 0 0 0 0 0 0 0 0 0 0 0 0 0 0 0 0 0 0 0 0 0 0 0 0 0 0 0 0
0 0 0 0 0 0 0 0 0 0 0 0 0 0 0 0 0 0 0 0 0 0 0 0 0 0 0 0 0 0 0 0 0 0 0 0 0 0 0 0 0 0 0 0
CIN
0 0 0 0 0 0 0 0 0 0 0 0 0 0 0 0 0 0 0 0 0 0 0 0 0 0 0 0 0 0 0 0 -1 -205 -160 -154 -138 -174 0 0 0 0 0 -1
0 0 0 0 0 0 0 0 0 0 0 0 0 0 0 0 0 0 0 0 0 0 0 0 0 0 0 0 0 0 0 0 0 0 0 0 0 0 0 0 0 0 0 0
0 0 0 0 0 0 -8 0 0 0 0 0 0 0 0 0 0 0 0 0 0 0 0 0 0 0 0 0 0 0 0 0 0 0 0 0 0 0 0 0 0 0 0 0
-1 0 0 0 0 0 -9 0 0 0 0 0 0 0 0 0 0 0 0 0 0 0 0 0 0 0 0 0 0 0 0 0 0 0 0 0 0 0 0 0 0 0 0 0
0 0 0 0 0 0 0 0 0 0 0 0 0 0 0 0 0 0 0 0 0 0 0 0 0 0 0 0 0 0 0 0 0 0 0 0 0 0 0 0 0 0 0 0
0 0 -1 -2 0 -3 -4 0 0 0 0 0 0 0 0 0 0 0 0 0 0 0 0 0 0 0 0 0 0 0 0 0 0 0 0 0 0 0 0 0 0 0 0 0
0 0 0 -6 -1 -3 0 0 0 0 0 0 0 0 0 0 0 0 0 0 0 0 0 0 0 0 0 0 0 0 0 0 0 0 0 0 0 0 0 0 0 0 0 0
0 0 -1 -3 0 0 0 0 0 0 0 0 0 0 0 0 0 0 0 0 0 0 0 0 0 0 0 0 0 0 0 0 0 0 0 0 0 0 0 0 0 0 0 0
0 0 0 0 -9 0 0 0 0 0 0 0 0 0 0 0 0 0 0 0 0 0 0 0 0 0 0 0 0 0 0 0 0 0 0 0 0 0 0 0 0 0 0 0
0 0 0 0 0 0 0 0 0 0 0 0 0 0 0 0 0 0 0 0 0 0 0 0 0 0 0 0 0 0 0 0 0 0 0 0 0 0 0 0 0 0 0 0
0 0 0 0 0 0 0 0 0 0 0 0 0 0 0 0 0 0 0 0 0 0 0 0 0 0 0 0 0 0 0 0 0 0 0 0 0 0 0 0 0 0 0 0
0 0 0 0 0 0 0 0 0 0 0 0 0 0 0 0 0 0 0 0 0 0 0 0 0 0 0 0 0 0 0 0 0 0 0 0 0 0 0 0 0 0 0 0
0 0 0 0 0 0 0 0 0 0 0 0 0 0 0 0 0 0 0 0 0 0 0 0 0 0 0 0 0 0 0 0 0 0 0 0 0 0 0 0 0 0 0 0
0 0 0 0 0 0 0 0 0 0 0 0 0 0 0 0 0 0 0 0 0 0 0 0 0 0 0 0 0 0 0 0 0 0 0 0 0 0 0 0 0 0 0 0
0 0 0 0 0 0 0 0 0 0 0 0 0 0 0 0 0 0 0 0 0 0 0 0 0 0 0 0 0 0 0 0 0 0 0 0 0 0 0 0 0 0 0 0
0 0 0 0 0 0 0 0 0 0 0 0 0 0 0 0 0 0 0 0 0 0 0 0 0 0 0 0 0 0 0 0 0 0 0 0 0 0 0 0 0 0 0 0
0 0 0 0 0 0 0 0 0 0 0 0 0 0 0 0 0 0 0 0 0 0 0 0 0 0 0 0 0 0 0 0 0 0 0 0 0 0 0 0 0 0 0 0
0 0 0 0 0 0 0 0 0 0 0 0 0 0 0 0 0 0 0 0 0 0 0 0 0 0 0 0 0 0 0 0 0 0 0 0 0 0 0 0 0 0 0 0
0 0 0 0 0 0 0 0 0 0 0 0 0 0 0 0 0 0 0 0 0 0 0 0 0 0 0 0 0 0 0 0 0 0 0 0 0 0 0 0 0 0 0 0
0 0 0 0 0 0 0 0 0 0 0 0 0 0 0 0 0 0 0 0 0 0 0 0 0 0 0 0 0 0 0 0 0 0 0 0 0 0 0 0 0 0 0 0
0 0 0 0 0 0 0 0 0 0 0 0 0 0 0 0 0 0 0 0 0 0 0 0 0 0 0 0 0 0 0 0 0 0 0 0 0 0 0 0 0 0 0 0
0 0 0 0 0 0 0 0 0 0 0 0 0 0 0 0 0 0 0 0 0 0 0 0 0 0 0 0 0 0 0 0 0 0 0 0 0 0 0 0 0 0 0 0
0 0 0 0 0 0 0 0 0 0 0 0 0 0 0 0 0 0 0 0 0 0 0 0 0 0 0 0 0 0 0 0 0 0 0 0 0 0 0 0 0 0 0 0
0 0 0 0 0 0 0 0 0 0 0 0 0 0 0 0 0 0 0 0 0 0 0 0 0 0 0 0 0 0 0 0 0 0 0 0 0 0 0 0 0 0 0 0
0 0 0 0 0 0 0 0 0 0 0 0 0 0 0 0 0 0 0 0 0 0 0 0 0 0 0 0 0 0 0 0 0 0 0 0 0 0 0 0 0 0 0 0
0 0 0 0 0 0 0 0 0 0 0 0 0 0 0 0 0 0 0 0 0 0 0 0 0 0 0 0 0 0 0 0 0 0 0 0 0 0 0 0 0 0 0 0
Wind_Speed
26 33 39 32 32 35 42 46 45 39 32 33 34 32 31 27 28 22 19 17 15 14 16 15 14 13 12 14 14 16 17 19 18 20 23 25 27 28 28 28 30 30 30 29
29 46 34 28 27 30 34 46 47 39 39 37 36 34 30 28 29 28 22 20 20 16 15 14 13 12 12 12 13 15 17 19 20 22 24 25 27 26 26 27 28 29 29 29
32 30 25 27 30 31 32 37 39 41 32 35 37 41 34 28 26 27 25 21 20 16 13 12 11 11 11 12 14 15 17 19 22 24 24 26 26 26 26 28 29 29 29 29
33 25 25 25 32 28 36 29 29 33 34 44 36 52 46 33 31 25 21 17 15 13 13 11 10 11 13 14 15 16 19 21 23 24 24 25 25 26 26 26 26 28 28 28
33 29 29 30 28 27 30 22 24 26 28 28 35 44 42 37 36 27 22 16 14 12 11 11 11 13 15 16 15 18 19 20 22 22 22 22 23 24 23 25 26 28 28 29
28 25 22 23 18 18 17 20 21 24 26 38 33 35 38 38 37 29 25 19 16 13 11 13 14 13 14 17 16 16 17 19 20 21 22 23 23 24 25 27 28 29 29 30
24 26 22 20 20 14 15 22 29 32 33 36 26 33 33 35 31 29 24 17 17 12 12 14 15 14 13 12 13 15 17 19 20 21 22 23 24 25 26 28 29 31 31 32
28 33 29 25 26 26 22 21 27 34 34 30 23 31 30 26 29 23 19 18 14 9 8 9 11 12 11 13 13 14 16 18 20 21 23 24 25 26 27 28 28 29 30 32
32 30 27 26 24 21 26 30 19 19 22 24 24 24 22 21 25 21 23 23 22 18 13 10 10 9 11 11 14 15 16 19 21 22 23 25 26 27 27 28 29 30 31 31
25 32 26 25 21 24 25 21 25 22 27 30 26 25 23 19 19 20 19 21 15 11 9 7 9 9 10 13 13 15 18 19 21 22 23 25 26 27 28 28 30 31 32 33
27 26 27 23 29 27 26 26 22 19 22 26 25 26 19 17 17 15 14 13 10 9 8 7 8 10 11 13 15 16 18 20 22 23 24 26 27 27 28 29 31 33 34 36
26 22 30 27 20 26 27 31 28 28 26 21 21 21 19 21 18 13 10 10 9 7 7 8 10 10 12 14 16 17 19 21 22 23 25 26 27 28 29 31 33 34 37 37
29 30 34 31 28 28 31 29 31 25 26 27 30 25 20 17 16 14 12 10 9 9 10 10 11 11 13 15 17 19 20 21 22 23 24 26 28 30 32 34 36 37 39 39
23 28 35 41 35 28 33 30 29 31 33 30 28 24 21 17 13 12 11 10 11 12 13 13 12 11 13 15 17 19 21 22 22 23 25 27 30 32 34 36 37 38 38 39
27 28 27 26 25 27 29 30 28 34 31 34 30 26 20 13 10 9 6 6 7 9 12 13 12 12 13 16 18 20 21 22 22 25 27 30 31 33 34 36 37 37 37 37
25 29 23 25 23 24 28 27 29 30 29 28 25 26 15 13 11 13 11 12 13 14 16 14 12 13 15 17 19 21 21 23 24 26 28 30 32 34 35 35 36 35 36 37
27 27 29 34 27 26 33 31 29 27 24 21 26 21 12 16 18 19 15 15 16 15 13 12 13 15 16 18 19 20 22 22 25 28 30 32 33 33 33 33 34 36 37 38
19 23 25 29 25 36 28 23 25 26 25 21 19 16 16 17 16 17 20 21 20 18 15 13 13 14 15 17 18 19 22 24 26 28 30 31 32 32 32 34 35 36 37 37
21 21 20 26 28 26 23 20 21 23 26 19 19 17 18 19 18 21 20 18 16 13 11 11 10 12 14 16 18 20 22 25 27 29 30 31 31 31 32 34 36 36 36 37
10 11 17 19 25 31 22 15 14 14 28 16 16 15 15 13 21 19 15 13 11 10 10 10 10 12 14 17 19 21 23 25 29 28 29 28 28 30 33 33 34 34 35 37
13 14 15 17 20 21 18 12 10 20 21 10 9 10 11 15 17 15 10 12 11 10 11 10 12 16 17 18 19 24 24 25 24 24 26 28 29 30 30 33 34 36 38 39
13 12 13 12 16 20 12 11 14 15 8 7 9 11 14 14 14 10 10 9 8 9 13 14 17 18 17 19 19 21 21 20 23 25 26 27 28 30 33 34 35 37 40 42
13 14 11 10 12 14 11 13 13 9 6 8 8 11 13 15 15 11 9 8 9 10 13 15 17 18 17 14 13 18 20 19 22 25 28 29 31 32 32 36 38 40 42 43
16 15 14 16 16 13 12 14 13 11 11 9 10 10 11 14 12 11 12 12 12 14 15 14 11 7 10 11 12 16 18 20 24 29 30 30 32 34 34 35 37 39 42 43
20 17 20 23 22 19 18 17 15 14 15 15 16 16 14 14 14 12 12 12 11 8 7 8 8 9 10 11 14 17 20 21 26 28 30 31 32 34 35 36 36 38 38 39
21 23 22 20 20 17 16 16 14 16 18 18 18 17 16 13 13 14 12 11 10 9 11 10 8 11 15 16 17 18 19 21 26 29 30 31 32 34 35 37 38 36 36 39
Wind_Direction
240 238 234 241 243 247 241 238 238 243 250 250 250 252 251 251 249 254 256 255 254 255 268 272 277 281 289 296 299 302 305 308 313 313 312 314 314 315 318 322 322 323 323 325
239 234 242 244 246 247 239 237 236 245 248 248 250 250 253 255 252 253 255 254 252 257 267 273 277 286 291 300 307 310 311 314 316 316 316 317 318 321 325 327 328 329 329 329
241 245 240 241 241 240 241 237 234 241 254 251 246 245 249 255 258 256 257 256 251 250 256 268 276 287 297 304 312 314 316 318 319 319 319 319 321 322 324 326 328 331 332 333
244 243 235 238 240 240 239 243 239 244 247 242 242 243 245 252 252 251 250 244 242 247 261 272 283 293 298 306 311 317 317 318 320 322 324 324 323 323 327 330 334 335 338 338
237 233 229 233 241 240 247 238 242 248 249 251 244 245 250 246 247 245 246 244 242 249 263 275 287 297 303 309 316 320 324 328 329 333 335 335 332 333 337 337 337 337 338 340
240 234 231 241 234 250 238 235 245 252 253 247 247 246 252 241 241 245 252 244 248 249 266 283 291 300 307 314 319 326 332 336 337 340 340 340 338 337 337 336 336 336 337 338
244 223 232 232 223 227 233 226 239 243 245 251 250 248 253 248 247 247 239 252 250 254 268 277 293 301 305 314 328 330 334 337 341 342 342 343 340 339 338 336 335 334 335 335
227 224 223 230 227 236 222 237 241 243 243 249 255 253 258 255 250 250 250 244 255 250 275 286 292 300 308 314 326 336 339 339 340 343 343 344 343 341 341 339 339 338 337 337
229 239 229 234 229 218 236 239 256 253 256 253 255 261 263 259 249 250 248 245 252 268 275 278 276 296 309 328 321 332 340 341 342 341 342 343 343 342 342 341 341 340 340 339
239 234 231 233 225 241 237 238 241 253 247 250 257 258 261 255 243 242 240 246 249 252 254 267 270 293 315 320 336 339 341 341 342 344 345 345 344 344 343 343 341 341 340 338
231 229 223 228 234 230 231 235 246 251 256 253 253 259 269 259 248 242 243 243 241 241 246 260 286 303 317 330 335 338 341 342 343 344 344 343 343 343 343 341 340 339 338 337
230 229 223 232 242 238 245 240 243 246 252 265 267 268 273 265 260 255 250 245 245 240 252 276 293 306 317 325 332 337 340 342 342 342 341 342 342 341 339 338 337 337 335 335
229 234 231 239 243 244 242 241 243 254 259 260 261 269 276 276 261 258 256 250 243 249 270 294 305 310 319 327 333 337 339 339 339 341 341 340 339 337 336 335 335 334 334 334
234 238 239 237 243 242 241 244 249 252 254 258 264 266 267 272 266 261 267 258 250 262 277 292 305 315 323 327 330 333 335 337 338 338 338 338 337 336 335 335 335 335 336 336
233 237 240 247 247 248 245 244 250 251 257 258 261 261 263 270 271 275 284 280 271 276 285 295 301 308 316 323 328 332 334 335 338 337 336 335 336 337 337 337 338 338 339 339
233 230 240 246 253 252 249 249 252 257 259 266 264 264 264 270 289 285 292 292 289 290 292 294 298 305 312 317 322 328 332 335 337 337 337 338 338 337 337 337 338 340 341 340
233 229 238 244 255 258 256 252 253 258 258 260 260 271 266 271 281 287 298 300 300 298 295 291 295 302 311 319 325 328 332 337 336 336 336 336 337 338 339 340 340 340 340 340
228 231 243 245 249 251 265 268 260 258 258 265 272 273 275 282 290 295 298 298 299 298 296 295 299 308 319 325 329 333 334 334 334 334 335 336 337 337 338 338 339 339 340 341
237 234 243 244 249 264 266 267 256 255 260 267 270 276 282 287 292 295 300 302 305 307 308 310 319 322 327 329 331 332 332 332 332 332 333 335 335 336 338 338 338 341 342 342
247 249 246 248 251 255 267 272 270 270 263 271 274 278 283 290 285 296 305 315 320 324 324 322 327 328 328 329 330 330 330 331 330 332 334 337 340 339 339 341 342 343 343 342
231 249 247 252 257 270 268 264 269 258 276 270 279 288 293 295 303 313 320 321 326 326 324 329 326 322 325 328 329 325 327 328 335 340 341 340 341 341 343 342 342 341 341 340
231 243 253 256 260 262 258 259 266 281 293 285 291 299 302 313 322 331 333 334 339 333 323 322 319 321 326 327 328 327 330 340 340 340 341 342 343 342 341 340 340 339 339 338
242 243 260 278 267 279 270 289 291 300 303 305 315 316 320 317 320 327 330 327 322 321 320 321 320 322 327 335 343 336 337 343 343 341 339 340 340 341 340 337 337 337 337 338
260 264 277 264 274 291 285 283 283 295 305 317 323 326 324 321 327 321 319 314 312 314 315 322 332 339 339 344 346 344 344 343 339 333 335 338 337 336 338 339 338 337 337 337
258 262 261 266 275 284 283 278 281 290 301 305 308 311 313 314 317 316 313 313 317 326 331 333 333 336 338 343 341 341 340 340 334 335 335 336 336 336 337 338 339 338 338 338
264 263 269 286 285 289 299 298 293 293 298 300 301 304 311 314 314 315 314 316 319 322 326 328 327 329 330 331 334 336 337 337 333 332 334 335 336 337 337 337 337 339 339 339